Wind_Speed
28 29 30 30 29 29 29 28 28 28 28 28 28 28 28 29 30 30 30 30 29 29 30 29 28 28 27 27 26 25 24 23 22 21 20 20 20 19 19 19 18 18 17
29 28 28 28 28 28 27 26 26 27 26 26 27 27 28 29 30 31 32 31 30 30 30 30 29 29 30 29 29 29 27 26 25 24 24 23 22 21 21 20 20 20 19
27 27 26 26 26 25 23 22 23 24 24 25 26 28 28 28 30 33 33 34 32 31 31 31 31 30 31 31 31 31 31 29 28 27 26 26 25 24 23 22 22 21 21
26 25 24 24 23 22 21 20 20 21 22 23 24 26 27 28 28 29 31 31 32 32 32 33 32 32 32 33 33 33 32 32 31 30 29 28 27 26 26 25 24 24 23
25 25 23 22 21 20 20 20 21 21 22 23 24 25 26 27 27 28 29 29 30 31 32 32 33 33 33 33 34 34 34 33 33 32 31 30 30 29 28 28 27 26 25
25 24 23 21 21 20 20 20 21 21 22 24 25 25 26 27 28 28 29 29 29 30 31 30 31 32 32 33 34 34 35 35 34 33 32 32 31 31 31 30 30 28 27
24 23 22 21 21 21 20 20 21 22 23 24 25 25 26 27 28 28 29 29 29 29 29 30 30 30 32 33 33 33 34 35 35 34 33 32 32 31 32 32 32 31 30
24 23 23 22 22 21 21 21 21 22 23 25 26 26 26 27 28 28 29 29 30 30 30 29 29 29 29 30 31 31 33 34 36 35 35 35 33 32 32 33 34 34 33
25 24 24 24 23 23 22 23 23 23 24 26 27 28 28 27 28 28 29 28 29 29 30 30 28 28 28 29 30 30 31 34 35 35 34 34 34 33 32 32 34 35 35
26 26 26 26 26 26 25 25 25 25 26 27 28 29 29 29 29 27 28 29 29 29 29 29 28 27 28 28 28 29 30 31 34 33 34 34 34 34 33 33 34 34 35
28 28 28 29 29 29 29 28 28 28 28 28 29 30 30 31 30 28 26 28 29 29 29 29 29 28 28 27 26 27 29 30 32 33 33 33 33 33 33 33 33 34 34
30 31 31 32 32 32 32 32 31 31 31 30 30 30 31 31 31 30 28 27 28 28 28 28 28 28 28 26 27 26 26 28 30 30 32 32 32 32 32 32 33 34 34
34 35 34 34 35 35 35 35 34 34 34 33 32 31 31 31 31 31 29 27 27 27 28 27 27 28 28 27 26 26 26 27 28 29 30 31 30 30 31 31 32 32 33
38 39 38 37 37 37 37 37 37 37 36 35 34 33 32 32 31 31 30 28 27 26 27 27 28 29 29 28 27 27 26 26 26 27 28 29 29 30 31 31 31 32 32
43 42 42 41 41 41 40 40 39 38 38 36 35 34 33 32 32 31 30 29 27 25 25 27 28 28 29 28 27 26 26 25 25 26 26 26 28 29 30 29 29 30 30
48 47 46 45 44 43 43 42 41 40 39 38 36 35 34 33 33 31 30 29 28 26 25 26 27 27 27 27 26 25 25 25 25 26 26 26 26 27 28 28 29 28 29
54 53 51 50 48 47 45 44 43 41 40 39 38 37 35 34 33 32 30 29 28 27 25 25 27 27 27 27 26 26 25 25 25 25 26 26 27 27 28 28 29 28 29
60 59 57 55 53 51 48 46 45 43 42 40 39 38 36 35 33 32 31 30 28 27 26 25 26 27 27 27 27 26 25 25 25 25 25 26 26 25 25 25 26 27 27
66 64 62 60 57 55 52 50 47 46 45 42 40 38 37 36 34 33 31 30 28 27 27 26 26 27 27 27 27 26 26 26 26 25 25 25 25 24 24 25 25 26 27
70 69 67 65 63 59 56 54 51 49 46 44 42 40 38 37 35 33 32 30 29 27 27 26 26 27 27 26 26 26 26 26 26 26 26 26 25 25 24 24 24 24 25
74 73 71 69 68 65 62 59 54 52 49 46 43 41 39 37 35 34 32 31 29 27 27 26 26 26 27 26 26 25 25 26 26 25 25 25 25 24 23 23 23 23 23
74 75 75 73 71 68 65 62 59 55 51 47 45 43 40 38 36 34 32 31 29 28 26 25 24 25 26 25 25 25 24 25 25 24 23 23 23 22 22 22 22 21 21
65 67 69 70 69 68 67 64 62 59 55 51 47 45 42 39 37 35 32 31 29 28 27 25 23 23 24 26 26 24 23 24 25 24 23 22 21 20 20 20 19 19 19
49 53 56 59 62 62 62 62 61 59 56 52 49 46 43 40 37 35 33 31 29 28 26 25 23 23 24 24 24 24 24 25 25 23 21 20 20 19 18 17 18 17 17
37 39 42 46 49 51 53 54 55 54 52 49 47 45 42 39 36 35 32 30 28 27 26 25 24 23 23 23 22 22 22 22 22 21 19 18 18 17 16 15 15 15 14
31 32 33 35 37 40 43 46 48 48 47 45 44 43 40 38 36 34 32 30 28 26 25 24 23 22 22 22 21 20 20 19 19 18 17 16 16 15 14 13 12 11 10
Wind_Direction
291 290 289 289 289 288 287 285 285 283 282 282 280 277 275 271 271 272 273 273 273 273 273 271 269 267 266 264 262 257 256 256 254 253 252 252 251 249 248 248 246 245 243
290 289 289 288 287 288 288 289 287 287 287 284 282 281 280 277 272 271 273 273 272 273 272 270 269 267 266 264 261 258 255 255 254 253 252 252 250 248 247 248 248 247 246
291 289 288 288 288 290 290 291 292 289 291 291 287 284 284 283 280 275 273 272 271 270 271 271 268 267 265 263 260 257 255 254 253 251 252 251 250 249 247 247 249 249 248
290 288 288 288 288 289 291 292 293 293 294 295 294 292 290 287 286 283 279 277 273 270 269 268 267 266 263 262 259 256 254 253 252 250 251 250 250 249 248 247 248 249 249
287 286 286 285 286 288 291 293 295 295 295 296 297 298 296 293 291 287 284 280 275 272 270 267 265 264 263 262 259 255 253 252 251 251 250 249 249 249 248 247 247 247 248
285 283 281 281 283 286 289 293 296 298 299 299 300 301 300 297 293 290 286 283 280 274 270 268 264 262 263 262 259 255 253 252 250 250 250 249 249 249 248 247 247 246 246
282 281 279 279 281 284 288 291 295 299 301 302 304 305 304 301 297 291 286 283 281 277 272 268 266 263 260 260 258 255 253 250 249 249 249 248 249 250 250 247 246 245 245
279 277 276 277 280 282 286 290 295 299 301 303 305 306 306 303 301 297 290 283 279 276 272 269 265 262 261 259 256 254 251 249 249 250 248 248 248 250 250 247 245 245 245
277 275 275 276 278 281 284 288 292 297 300 303 305 307 308 306 302 299 293 286 280 276 271 266 262 261 261 260 257 253 251 249 248 248 247 247 248 249 249 248 246 246 245
274 274 275 275 277 279 282 285 288 293 297 301 304 306 307 308 305 300 293 287 280 275 271 265 261 261 259 260 258 254 252 251 248 247 246 246 247 249 249 248 246 247 246
275 275 275 276 277 278 280 283 285 289 292 296 300 303 305 307 306 304 296 287 281 274 268 264 260 259 259 259 258 255 251 250 249 247 246 246 246 248 247 248 247 248 247
275 275 276 276 277 278 278 280 282 285 287 291 295 299 301 304 305 305 301 291 282 275 269 263 260 258 258 261 259 256 254 250 248 246 245 247 246 247 248 248 248 247 247
276 275 275 276 276 276 277 278 279 281 283 286 290 294 298 300 301 303 302 295 285 276 269 264 260 258 257 259 259 258 256 252 250 248 248 247 247 247 247 247 249 249 248
274 273 273 273 273 274 275 275 276 278 279 281 285 289 293 296 299 300 300 296 289 278 270 264 261 260 260 259 258 257 259 255 253 251 250 248 248 248 248 249 251 251 251
271 270 270 271 270 271 271 272 273 274 276 278 281 284 289 292 295 297 298 295 289 280 271 264 262 260 259 260 260 259 260 258 255 253 250 249 249 249 250 250 251 251 251
271 269 269 268 267 267 268 269 269 270 273 275 278 281 284 288 291 294 294 293 289 282 272 265 263 261 258 259 260 259 259 258 256 253 250 249 251 251 250 252 251 251 250
270 268 267 267 267 266 266 267 266 267 269 272 274 277 280 284 288 290 290 289 287 283 275 267 263 262 259 259 258 258 257 257 256 254 252 252 252 252 252 253 253 253 252
269 268 266 265 265 266 265 266 265 265 266 268 271 274 276 280 284 287 287 286 284 281 276 269 262 260 258 257 257 257 257 257 255 253 253 253 253 253 254 254 254 253 254
268 267 266 265 265 264 264 264 265 264 264 265 267 270 273 277 280 283 284 282 281 279 276 270 264 260 257 257 258 256 256 254 252 252 253 253 254 254 255 255 255 253 253
268 267 266 265 264 263 261 261 262 262 261 263 265 267 269 273 276 278 280 280 278 276 273 270 265 261 258 256 256 256 255 252 252 252 253 253 252 253 255 254 253 254 254
267 266 266 265 264 262 260 260 260 260 259 260 262 264 266 269 273 274 276 276 275 273 271 268 265 260 256 255 254 255 254 251 250 251 251 251 251 252 254 253 253 253 254
267 266 264 263 262 262 260 259 258 258 257 257 260 262 263 265 268 270 272 272 271 270 268 265 262 259 253 252 251 251 251 251 249 248 249 250 249 248 250 250 251 252 253
266 264 264 263 261 260 259 257 257 256 254 254 257 258 259 261 264 266 268 268 267 266 265 261 258 255 254 251 247 246 247 250 251 248 248 246 245 245 247 248 249 249 252
269 265 263 261 259 257 255 254 253 252 251 250 252 254 255 257 259 262 263 263 263 263 261 258 255 255 252 247 245 245 246 245 246 242 241 239 238 240 244 245 247 248 250
275 269 264 261 258 254 251 248 247 245 245 245 246 248 250 251 254 257 258 258 258 257 255 253 252 253 250 245 243 241 238 237 235 232 233 234 233 235 236 238 243 242 246
281 278 270 262 257 252 246 241 239 237 235 236 237 240 243 246 248 250 251 251 252 251 250 247 244 242 241 238 238 237 231 229 228 225 224 226 226 226 227 228 232 235 243
Height
5871 5870 5869 5867 5866 5865 5864 5864 5863 5863 5862 5862 5861 5861 5861 5862 5863 5863 5863 5865 5865 5864 5865 5866 5867 5868 5869 5870 5871 5873 5874 5876 5877 5879 5880 5881 5882 5883 5884 5885 5887 5888 5889
5866 5864 5863 5861 5860 5859 5858 5857 5857 5856 5855 5855 5855 5855 5854 5855 5855 5856 5856 5857 5858 5858 5858 5859 5860 5861 5862 5863 5865 5866 5868 5870 5872 5873 5875 5876 5878 5879 5880 5882 5883 5884 5886
5860 5858 5857 5856 5854 5853 5852 5852 5851 5850 5850 5850 5849 5849 5849 5848 5848 5849 5848 5849 5850 5850 5851 5851 5852 5853 5854 5855 5857 5859 5861 5863 5865 5867 5869 5871 5873 5874 5876 5877 5879 5880 5882
5854 5853 5851 5850 5849 5848 5847 5847 5846 5845 5844 5843 5843 5842 5842 5841 5841 5841 5840 5841 5841 5842 5843 5843 5844 5845 5846 5847 5849 5851 5853 5856 5858 5861 5863 5865 5867 5869 5871 5872 5874 5876 5877
5849 5847 5846 5845 5844 5843 5842 5842 5841 5840 5839 5838 5837 5836 5836 5835 5834 5833 5833 5833 5833 5833 5834 5835 5836 5837 5838 5839 5840 5843 5845 5848 5851 5853 5856 5858 5861 5863 5865 5867 5869 5870 5872
5843 5842 5841 5840 5839 5839 5838 5837 5836 5835 5833 5832 5831 5830 5829 5828 5827 5826 5826 5825 5825 5825 5825 5826 5827 5828 5829 5830 5832 5834 5836 5839 5842 5846 5848 5851 5854 5856 5858 5860 5862 5864 5866
5837 5837 5836 5835 5834 5833 5832 5831 5830 5829 5828 5826 5825 5824 5823 5821 5820 5819 5818 5817 5817 5816 5816 5818 5818 5819 5821 5822 5823 5825 5828 5831 5834 5837 5840 5843 5846 5848 5851 5853 5856 5858 5860
5831 5831 5830 5830 5829 5828 5827 5826 5825 5824 5822 5820 5818 5817 5816 5815 5812 5811 5810 5809 5809 5808 5809 5810 5810 5811 5812 5814 5815 5817 5819 5822 5825 5829 5832 5835 5838 5841 5843 5845 5848 5851 5853
5825 5824 5824 5823 5823 5822 5821 5820 5819 5818 5816 5814 5812 5810 5809 5808 5806 5804 5802 5801 5800 5800 5801 5801 5802 5804 5805 5806 5807 5809 5811 5813 5817 5820 5823 5826 5830 5833 5835 5838 5840 5843 5846
5818 5818 5818 5817 5816 5816 5815 5814 5813 5811 5810 5808 5806 5803 5801 5799 5798 5797 5795 5793 5792 5792 5792 5793 5795 5796 5797 5798 5799 5801 5803 5805 5808 5811 5814 5818 5822 5825 5827 5830 5832 5835 5838
5811 5811 5810 5810 5809 5809 5808 5807 5806 5804 5803 5802 5800 5798 5795 5792 5790 5789 5788 5786 5784 5784 5784 5786 5787 5788 5790 5791 5792 5794 5795 5798 5800 5803 5806 5810 5813 5816 5819 5821 5824 5827 5829
5803 5803 5802 5802 5801 5801 5800 5800 5798 5797 5796 5794 5793 5791 5788 5786 5783 5781 5780 5778 5777 5777 5777 5778 5780 5781 5782 5783 5785 5786 5787 5790 5792 5795 5799 5802 5805 5808 5811 5813 5816 5819 5821
5794 5793 5793 5793 5792 5792 5792 5791 5790 5789 5788 5787 5785 5783 5781 5779 5777 5774 5772 5771 5770 5770 5770 5771 5772 5774 5774 5776 5778 5779 5781 5783 5785 5788 5791 5794 5797 5800 5803 5806 5808 5811 5814
5783 5782 5782 5782 5782 5782 5782 5782 5781 5781 5780 5779 5777 5776 5774 5772 5769 5767 5765 5763 5763 5763 5763 5764 5765 5766 5767 5769 5771 5772 5773 5776 5778 5780 5783 5786 5789 5792 5795 5798 5801 5803 5806
5771 5771 5771 5771 5771 5771 5771 5771 5771 5771 5770 5770 5769 5768 5766 5764 5762 5760 5758 5756 5756 5755 5756 5756 5758 5759 5761 5762 5764 5765 5767 5769 5771 5774 5776 5779 5782 5785 5788 5790 5793 5795 5798
5757 5758 5759 5759 5759 5759 5760 5760 5760 5760 5760 5760 5760 5759 5758 5756 5755 5753 5751 5750 5748 5748 5749 5750 5750 5751 5753 5755 5757 5759 5761 5763 5765 5767 5770 5772 5775 5778 5781 5783 5786 5788 5791
5742 5743 5744 5745 5746 5746 5747 5748 5749 5749 5750 5750 5750 5750 5749 5747 5747 5745 5744 5743 5741 5741 5742 5743 5743 5744 5746 5748 5750 5752 5754 5756 5758 5760 5763 5766 5768 5771 5773 5776 5778 5781 5783
5724 5726 5727 5729 5731 5732 5733 5735 5736 5737 5738 5739 5739 5739 5739 5739 5738 5737 5736 5735 5734 5734 5734 5735 5736 5737 5739 5740 5743 5745 5747 5749 5751 5754 5756 5759 5761 5764 5766 5769 5771 5774 5776
5705 5706 5708 5711 5714 5716 5718 5720 5722 5724 5726 5727 5728 5729 5729 5729 5729 5729 5728 5728 5727 5727 5727 5728 5729 5730 5732 5733 5735 5738 5740 5742 5745 5747 5750 5752 5755 5757 5760 5762 5764 5767 5769
5683 5685 5688 5691 5694 5698 5701 5704 5707 5710 5712 5714 5716 5718 5719 5719 5720 5720 5720 5720 5719 5720 5720 5721 5722 5723 5725 5726 5729 5731 5733 5736 5738 5741 5744 5746 5749 5751 5753 5755 5758 5760 5762
5660 5662 5665 5669 5673 5677 5681 5686 5690 5694 5697 5701 5704 5706 5708 5709 5710 5710 5711 5711 5712 5712 5713 5713 5715 5716 5718 5720 5722 5724 5726 5729 5732 5735 5737 5740 5742 5745 5747 5749 5751 5753 5756
5635 5637 5640 5644 5650 5655 5660 5666 5671 5677 5682 5686 5690 5693 5696 5698 5700 5701 5702 5703 5703 5704 5705 5707 5708 5709 5711 5713 5716 5718 5720 5723 5726 5729 5731 5733 5736 5738 5741 5743 5745 5747 5749
5610 5613 5615 5619 5625 5631 5638 5644 5651 5658 5665 5670 5675 5680 5683 5687 5689 5691 5693 5694 5695 5696 5698 5700 5702 5703 5705 5707 5709 5712 5714 5716 5719 5722 5725 5727 5730 5733 5735 5737 5739 5741 5744
5588 5590 5593 5596 5601 5608 5615 5622 5630 5638 5647 5654 5660 5666 5671 5675 5678 5681 5683 5685 5687 5689 5691 5693 5695 5697 5699 5700 5702 5705 5708 5711 5714 5717 5720 5722 5725 5727 5730 5732 5734 5736 5738
5573 5573 5574 5577 5581 5587 5594 5602 5610 5619 5628 5637 5645 5651 5658 5663 5667 5670 5673 5676 5679 5681 5684 5686 5688 5690 5692 5694 5697 5700 5703 5705 5708 5711 5714 5718 5720 5723 5725 5728 5730 5732 5733
5561 5561 5562 5563 5566 5570 5576 5584 5592 5602 5612 5622 5630 5638 5645 5651 5656 5660 5664 5668 5671 5674 5677 5679 5682 5684 5686 5689 5692 5695 5698 5701 5704 5707 5710 5713 5716 5719 5721 5724 5726 5727 5729